TimeEST,TemperatureF,Dew PointF,Humidity,Sea Level PressureIn,VisibilityMPH,Wind Direction,Wind SpeedMPH,Gust SpeedMPH,PrecipitationIn,Events,Conditions,WindDirDegrees,DateUTC
12:15 AM,60.8,51.8,72,29.65,10.0,SW,16.1,24.2,N/A,,Mostly Cloudy,220,2013-03-06 05:15:00
12:35 AM,60.8,51.8,72,29.65,10.0,WSW,13.8,23.0,N/A,,Mostly Cloudy,240,2013-03-06 05:35:00
12:55 AM,60.8,51.8,72,29.64,10.0,WSW,13.8,17.3,N/A,,Clear,240,2013-03-06 05:55:00
1:15 AM,60.8,51.8,72,29.64,10.0,SW,16.1,23.0,N/A,,Mostly Cloudy,230,2013-03-06 06:15:00
1:35 AM,59.0,51.8,77,29.64,10.0,WSW,18.4,24.2,N/A,,Scattered Clouds,240,2013-03-06 06:35:00
1:55 AM,59.0,51.8,77,29.63,10.0,WSW,11.5,21.9,N/A,,Scattered Clouds,240,2013-03-06 06:55:00
2:15 AM,59.0,50.0,72,29.62,10.0,West,12.7,26.5,N/A,,Mostly Cloudy,260,2013-03-06 07:15:00
2:35 AM,55.4,44.6,67,29.64,10.0,West,20.7,29.9,N/A,,Mostly Cloudy,270,2013-03-06 07:35:00
2:55 AM,53.6,37.4,54,29.65,10.0,West,20.7,33.4,N/A,,Partly Cloudy,260,2013-03-06 07:55:00
3:15 AM,51.8,35.6,54,29.65,10.0,West,23.0,32.2,N/A,,Clear,270,2013-03-06 08:15:00
3:35 AM,50.0,35.6,58,29.66,10.0,West,25.3,33.4,N/A,,Clear,270,2013-03-06 08:35:00
3:55 AM,48.2,33.8,58,29.66,10.0,West,25.3,33.4,N/A,,Clear,270,2013-03-06 08:55:00
4:15 AM,46.4,33.8,62,29.67,10.0,West,23.0,33.4,N/A,,Partly Cloudy,260,2013-03-06 09:15:00
4:35 AM,46.4,33.8,62,29.68,10.0,West,19.6,28.8,N/A,,Mostly Cloudy,260,2013-03-06 09:35:00
4:55 AM,46.4,32.0,57,29.69,10.0,West,25.3,32.2,N/A,,Mostly Cloudy,280,2013-03-06 09:55:00
5:15 AM,44.6,28.4,53,29.70,10.0,West,23.0,32.2,N/A,,Partly Cloudy,270,2013-03-06 10:15:00
5:35 AM,42.8,28.4,57,29.71,10.0,West,19.6,29.9,N/A,,Clear,260,2013-03-06 10:35:00
6:45 AM,42.8,26.6,53,29.72,10.0,West,17.3,25.3,N/A,,Partly Cloudy,270,2013-03-06 11:45:00
7:46 AM,42.8,26.6,53,29.75,10.0,WNW,17.3,28.8,N/A,,Clear,290,2013-03-06 12:46:00
10:50 AM,48.2,21.2,34,29.78,10.0,WNW,16.1,27.6,N/A,,Scattered Clouds,290,2013-03-06 15:50:00
11:50 AM,48.2,21.2,34,29.79,10.0,NW,19.6,27.6,N/A,,Partly Cloudy,310,2013-03-06 16:50:00
12:45 PM,51.8,21.2,30,29.78,10.0,WNW,23.0,34.5,N/A,,Partly Cloudy,300,2013-03-06 17:45:00
1:45 PM,51.8,21.2,30,29.76,10.0,NW,23.0,34.5,N/A,,Clear,310,2013-03-06 18:45:00
2:45 PM,51.8,23.0,33,29.97,10.0,WNW,23.0,28.8,N/A,,Clear,300,2013-03-06 19:45:00
3:50 PM,53.6,24.8,33,29.79,10.0,WNW,23.0,28.8,N/A,,Clear,300,2013-03-06 20:50:00
4:45 PM,53.6,24.8,33,29.81,10.0,WNW,23.0,35.7,N/A,,Partly Cloudy,300,2013-03-06 21:45:00
5:45 PM,51.8,23.0,33,29.85,10.0,NW,20.7,34.5,N/A,,Partly Cloudy,320,2013-03-06 22:45:00
6:50 PM,50.0,24.8,37,29.91,10.0,NNW,17.3,28.8,N/A,,Clear,340,2013-03-06 23:50:00
7:45 PM,48.2,24.8,40,29.95,10.0,NW,23.0,-,N/A,,Scattered Clouds,310,2013-03-07 00:45:00
8:45 PM,46.4,24.8,43,29.98,10.0,NNW,17.3,-,N/A,,Partly Cloudy,330,2013-03-07 01:45:00
9:45 PM,44.6,24.8,46,30.00,10.0,NNW,17.3,-,N/A,,Clear,340,2013-03-07 02:45:00
10:55 PM,42.8,24.8,49,30.02,10.0,NW,11.5,20.7,N/A,,Clear,320,2013-03-07 03:55:00
11:15 PM,42.8,26.6,53,30.03,10.0,NW,10.4,-,N/A,,Clear,310,2013-03-07 04:15:00
11:35 PM,42.8,26.6,53,30.03,10.0,NW,13.8,21.9,N/A,,Clear,320,2013-03-07 04:35:00
11:55 PM,41.0,24.8,53,30.05,10.0,WNW,11.5,18.4,N/A,,Clear,300,2013-03-07 04:55:00